Skip Page Navigation
NASA JPL Caltech
NASA Logo - Jet Propulsion Laboratory + View the NASA Portal
+ Near-Earth Object (NEO) Program
Search JPL
JPL Home Earth Solar System Stars & Galaxies Technology
JPL Solar System Dynamics
BODIES ORBITS EPHEMERIDES TOOLS PHYSICAL DATA DISCOVERY FAQ SITE MAP
JPL Small-Body Database Browser
Search: [ help ]  
4858 Vorobjov (1985 UA)
Classification: Main-belt Asteroid          SPK-ID: 2004858
Ephemeris | Orbit Diagram | Orbital Elements | Physical Parameters | Discovery Circumstances ]

[ show orbit diagram ]
Orbital Elements at Epoch 2457000.5 (2014-Dec-09.0) TDB
Reference: JPL 10 (heliocentric ecliptic J2000)
 Element Value Uncertainty (1-sigma)   Units 
e .1091740591980823 4.8178e-08  
a 2.182074769314627 1.076e-08 AU
q 1.94384880927483 1.0832e-07 AU
i 3.27536369715093 5.847e-06 deg
node 329.9991406174475 9.4635e-05 deg
peri 125.3182021063814 0.00010227 deg
M 313.700056040443 3.3913e-05 deg
tp 2457151.919160149214
(2015-May-09.41916015)
0.00011073 JED
period 1177.342627052256
3.22
8.7084e-06
2.384e-08
d
yr
n .3057733507036447 2.2617e-09 deg/d
Q 2.420300729354424 1.1935e-08 AU
  Orbit Determination Parameters
   # obs. used (total)      1150  
   data-arc span      10683 days (29.25 yr)  
   first obs. used      1985-10-20  
   last obs. used      2015-01-19  
   planetary ephem.      DE431  
   SB-pert. ephem.      SB431-BIG16  
   condition code      0  
   fit RMS      .49519  
   data source      ORB  
   producer      Otto Matic  
   solution date      2015-Feb-04 13:11:23  

Additional Information
 Earth MOID = .962571 AU 
 T_jup = 3.670 
[ show covariance matrix ]

Ephemeris | Orbit Diagram | Orbital Elements | Physical Parameters | Discovery Circumstances ]

Physical Parameter Table
Parameter Symbol Value Units Sigma Reference Notes
absolute magnitude H 14.1 mag n/a MPO265983  

4858 Vorobjov           Discovered 1985 Oct. 23 by J. Gibson at Palomar.
Amateur astronomer Tomas Vorobjov (b. 1984) is an assiduous observer of minor planets and a participant in the International Astronomical Search Collaboration. He has been responsible for verifying student asteroid discoveries and taking follow-up images to complete the discovery process. Name suggested by S. Foglia.
NOTE: some special characters may not display properly (any characters within {} are an attempt to place the proper accent above a character)
Reference: 20110715/MPCPages.arcLast Updated: 2011-07-20

Alternate Designations
 1985 UA = 1988 RV6 
Ephemeris | Orbit Diagram | Orbital Elements | Physical Parameters | Discovery Circumstances ]
ABOUT SSD CREDITS/AWARDS PRIVACY/COPYRIGHT GLOSSARY LINKS
FirstGov 2015-Feb-28 05:23 UT
(server date/time)  
NASA Home Page
Site Manager:   Ryan S. Park
Webmaster  Alan B. Chamberlin